Overview Statistics Trail Chart Weather Telemetry Raw packets
 

This is the latest recevied weather packets stored in our database for station/object N7ZAP. If no packets are shown the sender has not sent any weather packets the latest 10 day(s).

<< 101 102 103 104 105 106 107 >>
Time Temp. Humidity Pressure Rain* Wind** Luminosity Snow
1787933074 30.56° C 29% 1026 hPa 0 mm - - -
1787932773 31.11° C 28% 1025.9 hPa 0 mm - - -
1787932473 30.56° C 28% 1025.6 hPa 0 mm - - -
1787932168 30.56° C 28% 1025.7 hPa 0 mm - - -
1787931561 30° C 30% 1026 hPa 0 mm - - -
1787931257 29.44° C 30% 1025.9 hPa 0 mm - - -
1787930956 29.44° C 31% 1025.6 hPa 0 mm - - -
1787930655 29.44° C 31% 1025.9 hPa 0 mm - - -
1787930350 29.44° C 31% 1025.9 hPa 0 mm - - -
1787930045 28.89° C 31% 1025.7 hPa 0 mm - - -
1787929743 28.33° C 33% 1025.7 hPa 0 mm - - -
1787929438 27.22° C 34% 1025.7 hPa 0 mm - - -
1787929136 26.67° C 35% 1025.6 hPa 0 mm - - -
1787928832 26.11° C 37% 1025.5 hPa 0 mm - - -
1787928531 25.56° C 37% 1025.7 hPa 0 mm - - -
1787928230 25° C 39% 1025.6 hPa 0 mm - - -
1787927928 25° C 40% 1026 hPa 0 mm - - -
1787927623 24.44° C 40% 1025.7 hPa 0 mm - - -
1787927318 23.89° C 42% 1025.9 hPa 0 mm - - -
1787927015 23.33° C 43% 1025.7 hPa 0 mm - - -
1787926714 22.78° C 44% 1025.9 hPa 0 mm - - -
1787926413 22.78° C 45% 1026.1 hPa 0 mm - - -
1787926107 22.78° C 45% 1026 hPa 0 mm - - -
1787925807 22.22° C 46% 1025.9 hPa 0 mm - - -
1787925501 21.67° C 46% 1025.6 hPa 0 mm - - -

* Rain latest hour (hover to see other rain measurements)
** Current wind speed in m/s (hover to see current wind gust speed)